SES-6

Last updated on Mon Oct 14 2024 00:02:39 GMT+0000 (Coordinated Universal Time)

1 39172U 13026A 24287.39848444 -.00000262 00000+0 00000+0 0 9990 2 39172 0.0353 354.4731 0002409 214.4676 276.4949 1.00272442 41599
UTC large
Height (km)
Speed (km/s)
/
Latitude / Longitude
Inclination (degrees)
Orbital Period (minutes)
Azimuth
Elevation
Range (km)
Doppler Factor

Next 0 passes for location: London (51.5072 / 0.1276)

Sorry there are no passes over London.